This demonstration page uses our WeatherBlox Daily Observations layout. Learn more.

Hourly Observations for August 13, 2019

Temp ( °F °C ) Dew Point ( °F °C ) Humidity (%) Winds ( mph kmh ) Pressure ( in mb ) Visibility ( mi km ) Precip ( " mm )
12:15 am 00:15 Clear 69 20.7 69 20.5 99 99 Calm 29.91 1013 10 16.09344 0 0
12:35 am 00:35 Clear 69 20.3 69 20.3 100 100 Calm 29.94 1014 10 16.09344 0 0
12:55 am 00:55 Clear 68 20 68 20 100 100 Calm 29.94 1014 10 16.09344 0 0
1:15 am 01:15 Clear 67 19.7 67 19.7 100 100 Calm 29.97 1015 10 16.09344 0 0
1:35 am 01:35 Clear 67 19.6 67 19.6 100 100 Calm 30 1016 10 16.09344 0 0
1:55 am 01:55 Clear 67 19.5 67 19.5 100 100 N 3 6 30 1016 10 16.09344 0 0
2:15 am 02:15 Clear 67 19.4 67 19.4 100 100 NNW 3 6 30 1016 10 16.09344 0 0
2:35 am 02:35 Clear 67 19.3 67 19.3 100 100 NNW 5 7 29.97 1015 10 16.09344 0 0
2:55 am 02:55 Clear 67 19.3 67 19.2 99 99 N 5 7 30 1016 10 16.09344 0 0
3:15 am 03:15 Clear 66 19 66 18.7 98 98 Calm 30 1016 10 16.09344 0 0
3:35 am 03:35 Clear 66 18.7 65 18.6 99 99 N 5 7 30 1016 10 16.09344 0 0
3:55 am 03:55 Clear 66 19.1 66 18.8 98 98 N 5 7 29.97 1015 10 16.09344 0 0
4:15 am 04:15 Clear 64 17.7 64 17.6 99 99 NNE 6 9 29.97 1015 10 16.09344 0 0
4:35 am 04:35 Clear 64 17.9 64 17.9 100 100 NNE 6 9 29.97 1015 10 16.09344 0 0
4:55 am 04:55 Clear 64 18 64 18 100 100 Calm 30 1016 10 16.09344 0 0
5:15 am 05:15 Clear 64 17.6 64 17.6 100 100 W 3 6 30 1016 10 16.09344 0 0
5:35 am 05:35 Clear 64 17.6 64 17.6 100 100 Calm 30 1016 10 16.09344 0 0
5:55 am 05:55 Clear 64 17.8 64 17.8 100 100 W 3 6 30.03 1017 10 16.09344 0 0
6:15 am 06:15 Clear 64 17.7 64 17.7 100 100 WNW 3 6 30.03 1017 10 16.09344 0 0
6:35 am 06:35 Clear 63 17.3 63 17.3 100 100 Calm 30.03 1017 7 11.265408 0 0
6:55 am 06:55 Sunny 62 16.9 62 16.9 100 100 Calm 30.03 1017 7 11.265408 0 0
7:15 am 07:15 Sunny 62 16.7 62 16.7 100 100 Calm 30.06 1018 7 11.265408 0 0
7:35 am 07:35 Sunny 63 17.2 63 17.2 100 100 Calm 30.03 1017 10 16.09344 0 0
7:55 am 07:55 Sunny 65 18.6 65 18.6 100 100 Calm 30.03 1017 10 16.09344 0 0
8:15 am 08:15 Sunny 67 19.5 67 19.4 99 99 Calm 30.03 1017 10 16.09344 0 0
8:35 am 08:35 Sunny 69 20.7 68 19.9 95 95 Calm 30 1016 10 16.09344 0 0
8:55 am 08:55 Sunny 70 21.3 68 19.9 92 92 Calm 30 1016 10 16.09344 0 0
9:15 am 09:15 Sunny 71 21.7 67 19.6 88 88 Calm 30.03 1017 10 16.09344 0 0
9:35 am 09:35 Sunny 73 22.5 68 19.8 85 85 Calm 30.03 1017 10 16.09344 0 0
9:55 am 09:55 Sunny 73 23 67 19.6 81 81 Calm 30.03 1017 10 16.09344 0 0
10:15 am 10:15 Sunny 74 23.5 67 19.4 78 78 Calm 30.03 1017 10 16.09344 0 0
10:35 am 10:35 Partly Cloudy 75 23.9 65 18.2 71 71 Calm 30.03 1017 10 16.09344 0 0
10:55 am 10:55 Partly Cloudy 76 24.2 64 17.8 68 68 Calm 30.03 1017 10 16.09344 0 0
11:15 am 11:15 Partly Cloudy 75 24 65 18.4 71 71 Calm 30.03 1017 10 16.09344 0 0
11:35 am 11:35 Sunny 76 24.5 64 17.5 65 65 Calm 30 1016 10 16.09344 0 0
11:55 am 11:55 Sunny 77 25 64 18 65 65 Calm 30 1016 10 16.09344 0 0
12:15 pm 12:15 Sunny 78 25.7 66 19.1 67 67 NE 5 7 30 1016 10 16.09344 0 0
12:35 pm 12:35 Sunny 79 26 63 17.2 58 58 NNE 3 6 30 1016 10 16.09344 0 0
12:55 pm 12:55 Sunny 80 26.5 64 17.9 59 59 NNE 3 6 30 1016 10 16.09344 0 0
1:15 pm 13:15 Sunny 80 26.7 65 18.6 61 61 E 5 7 30 1016 10 16.09344 0 0
1:35 pm 13:35 Sunny 80 26.8 64 17.7 57 57 NE 7 11 30 1016 10 16.09344 0 0
1:55 pm 13:55 Sunny 81 27.1 64 18 58 58 NNE 3 6 30 1016 10 16.09344 0 0
2:15 pm 14:15 Sunny 82 27.5 64 17.7 55 55 E 5 7 30 1016 10 16.09344 0 0
2:35 pm 14:35 Sunny 81 27.3 64 17.6 55 55 E 6 9 30 1016 10 16.09344 0 0
2:55 pm 14:55 Sunny 82 27.9 60 15.6 47 47 ENE 7 11 30 1016 10 16.09344 0 0
3:15 pm 15:15 Sunny 82 28 57 13.8 42 42 E 7 11 30 1016 10 16.09344 0 0
3:35 pm 15:35 Sunny 82 27.9 60 15.3 46 46 E 9 15 29.94 1014 10 16.09344 0 0
3:55 pm 15:55 Sunny 82 27.9 61 16 48 48 E 7 11 29.94 1014 10 16.09344 0 0
4:15 pm 16:15 Sunny 81 27.2 62 16.4 52 52 E 7 11 29.97 1015 10 16.09344 0 0
4:35 pm 16:35 Sunny 79 26.1 65 18.5 63 63 Calm 30 1016 10 16.09344 0 0
4:55 pm 16:55 Sunny 77 25.1 65 18.2 66 66 NNW 3 6 30 1016 10 16.09344 0 0
5:15 pm 17:15 Sunny 76 24.7 65 18.1 67 67 WNW 8 13 30 1016 10 16.09344 0 0
5:35 pm 17:35 Partly Cloudy 76 24.5 64 17.9 67 67 W 8 13 30 1016 10 16.09344 0 0
5:55 pm 17:55 Mostly Cloudy with Light Rain 76 24.2 62 16.6 63 63 W 13 20 30.03 1017 10 16.09344 0 0
6:15 pm 18:15 Cloudy with Light Rain 73 22.7 63 17.2 71 71 SW 14 22 30.03 1017 10 16.09344 0 0
6:35 pm 18:35 Mostly Cloudy with Light Rain 73 22.6 57 13.9 58 58 S 18 30 29.94 1014 10 16.09344 0 0
6:55 pm 18:55 Partly Cloudy 72 22.1 57 14 60 60 SSW 14 22 29.94 1014 10 16.09344 0 0
7:15 pm 19:15 Sunny 74 23.4 53 11.9 49 49 SSW 13 20 29.88 1012 10 16.09344 0 0
7:35 pm 19:35 Sunny 75 23.8 53 11.6 46 46 SW 5 7 29.91 1013 10 16.09344 0 0
7:55 pm 19:55 Sunny 74 23.3 54 12.2 50 50 NNW 8 13 30 1016 10 16.09344 0 0
8:15 pm 20:15 Sunny 73 22.5 55 13 55 55 NW 6 9 29.97 1015 10 16.09344 0 0
8:35 pm 20:35 Sunny 71 21.9 56 13.6 59 59 NNW 5 7 30 1016 10 16.09344 0 0
8:55 pm 20:55 Clear 73 22.5 55 12.7 54 54 NNW 7 11 30 1016 10 16.09344 0 0
9:15 pm 21:15 Clear 70 21.3 57 14.1 64 64 NW 5 7 30 1016 10 16.09344 0 0
9:35 pm 21:35 Clear 68 20.2 62 16.7 80 80 NE 13 20 30.03 1017 10 16.09344 0 0
9:55 pm 21:55 Clear 69 20.4 64 17.7 85 85 NE 10 17 30.06 1018 10 16.09344 0 0
10:15 pm 22:15 Clear 68 20.1 64 18 88 88 NE 6 9 30.06 1018 10 16.09344 0 0
10:35 pm 22:35 Clear 67 19.5 65 18.1 92 92 N 5 7 30.06 1018 10 16.09344 0 0
10:55 pm 22:55 Clear 66 19 65 18.2 95 95 NNE 3 6 30.06 1018 10 16.09344 0 0
11:15 pm 23:15 Clear 65 18.6 65 18.2 98 98 NNE 6 9 30.06 1018 10 16.09344 0 0
11:35 pm 23:35 Clear 65 18.6 65 18.1 97 97 NNE 6 9 30.06 1018 10 16.09344 0 0
11:55 pm 23:55 Clear 65 18.6 64 18 96 96 N 5 7 30.06 1018 10 16.09344 0 0

Powered by AerisWeather